Location: Unnamed
(48.6007°N, 2.4808°E)
Time: 06:04:30
(UTC+02:00)

VELOX 1 - Pass Details

Date: 28 March 2023
Orbit: 617 x 630 km, 98.4° (Epoch: 29 May)

Event Time Altitude Azimuth Distance (km) Brightness Sun altitude
Rises 20:58:32 0° 9° (N) 2,908 ? -8.0°
Reaches altitude 10° 21:00:48 10° 3° (N) 1,996 ? -8.4°
Maximum altitude 21:04:55 44° 291° (WNW) 857 ? -9.0°
Drops below altitude 10° 21:09:00 10° 219° (SW) 1,979 ? -9.7°
Sets 21:11:15 0° 213° (SSW) 2,880 ? -10.0°
